Cortez, CO

12:06 PM MST on November 21, 2019 (GMT -0700)
Cortez Municipal

Weather History for KCEZ - September, 2019

Change the Weather History Date:

Thursday, September 12, 2019

  Actual Average Record
Temperature  
Mean Temperature 58 °F 62 °F  
Max Temperature 77 °F 79 °F 90 °F (2017)
Min Temperature 38 °F 44 °F 36 °F (2010)
Degree Days  
Heating Degree Days 7 4  
Month to date heating degree days 13 31  
Since 1 July heating degree days 13 43  
Cooling Degree Days 0 1  
Month to date cooling degree days 63 15  
Year to date cooling degree days 543 424  
Growing Degree Days 7 (Base 50)    
Moisture  
Dew Point 29 °F    
Average Humidity 44    
Maximum Humidity 76    
Minimum Humidity 12    
Precipitation  
Precipitation 0.00 in 0.05 in 0.69 in (2013)
Month to date precipitation 0.15 0.64  
Year to date precipitation 9.93 9.08  
Sea Level Pressure  
Sea Level Pressure 30.15 in    
Wind  
Wind Speed 7 mph (NNE)    
Max Wind Speed 16 mph    
Max Gust Speed 23 mph    
Visibility 10 miles    
Events      
T = Trace of Precipitation, MM = Missing Value Source: NWS Daily Summary

Daily Weather History Graph

Daily Weather History Graph

Search for Another Location

Airport or City:

Astronomy

Sep. 12, 2019 Rise Set
Actual Time 6:53 AM MDT 7:27 PM MDT
Civil Twilight 6:27 AM MDT 7:53 PM MDT
Nautical Twilight 5:56 AM MDT 8:24 PM MDT
Astronomical Twilight 5:25 AM MDT 8:55 PM MDT
Moon 7:10 PM MDT (9/12) 5:20 AM MDT (9/12)
Length of Visible Light 13h 25m
Length of Day
12h 33m
Waxing Gibbous, 98% of the Moon is Illuminated
Sep 12
Waxing Gibbous
Sep 13
Full
Sep 21
Last Quarter
Sep 28
New
Oct 5
First Quarter

Hourly Weather History & Observations

Time (MDT) Temp. Windchill Dew Point Humidity Pressure Visibility Wind Dir Wind Speed Gust Speed Precip Events Conditions
12:00 AM 59.0 °F - 34.0 °F 39% 30.24 in 10.0 mi NE 13.8 mph 25.3 mph N/A   Partly Cloudy
12:53 AM 54.0 °F - 34.0 °F 47% 30.04 in 10.0 mi North 5.8 mph - N/A   Clear
1:53 AM 50.0 °F - 33.1 °F 52% 30.07 in 10.0 mi NNW 4.6 mph - N/A   Clear
2:53 AM 48.9 °F - 33.1 °F 54% 30.09 in 10.0 mi East 4.6 mph - N/A   Clear
3:53 AM 44.1 °F 41.5 °F 33.1 °F 65% 30.11 in 10.0 mi ENE 4.6 mph - N/A   Clear
4:53 AM 42.1 °F 40.2 °F 32.0 °F 67% 30.13 in 10.0 mi East 3.5 mph - N/A   Clear
5:53 AM 39.9 °F 33.9 °F 32.0 °F 73% 30.16 in 10.0 mi ENE 9.2 mph - N/A   Clear
6:53 AM 39.0 °F 34.0 °F 30.0 °F 70% 30.20 in 10.0 mi East 6.9 mph - N/A   Clear
7:53 AM 43.0 °F 38.2 °F 30.9 °F 62% 30.22 in 10.0 mi NE 8.1 mph - N/A   Clear
8:53 AM 53.1 °F - 32.0 °F 45% 30.21 in 10.0 mi NNE 5.8 mph - N/A   Clear
9:53 AM 57.9 °F - 36.0 °F 44% 30.20 in 10.0 mi South 4.6 mph - N/A   Clear
10:53 AM 63.0 °F - 36.0 °F 37% 30.19 in 10.0 mi Variable 3.5 mph - N/A   Clear
11:53 AM 70.0 °F - 28.9 °F 22% 30.15 in 10.0 mi NW 10.4 mph - N/A   Clear
12:53 PM 73.0 °F - 24.1 °F 16% 30.16 in 10.0 mi NNW 9.2 mph 21.9 mph N/A   Clear
1:53 PM 73.9 °F - 21.0 °F 14% 30.14 in 10.0 mi WNW 11.5 mph 20.7 mph N/A   Clear
2:53 PM 75.0 °F - 19.9 °F 13% 30.12 in 10.0 mi WNW 11.5 mph 18.4 mph N/A   Clear
3:53 PM 75.0 °F - 23.0 °F 14% 30.12 in 10.0 mi North - - N/A   Clear
4:53 PM 75.9 °F - 21.0 °F 13% 30.11 in 10.0 mi North 8.1 mph 18.4 mph N/A   Clear
5:53 PM 75.0 °F - 23.0 °F 14% 30.11 in 10.0 mi North 6.9 mph - N/A   Clear
6:53 PM 72.0 °F - 21.9 °F 15% 30.13 in 10.0 mi NNW 8.1 mph - N/A   Clear
7:53 PM 64.0 °F - 21.9 °F 20% 30.16 in 10.0 mi NW 6.9 mph - N/A   Clear
8:53 PM 52.0 °F - 30.9 °F 45% 30.19 in 10.0 mi East 4.6 mph - N/A   Clear
9:53 PM 51.1 °F - 32.0 °F 48% 30.19 in 10.0 mi East 5.8 mph - N/A   Clear
10:53 PM 52.0 °F - 30.0 °F 43% 30.18 in 10.0 mi East 5.8 mph - N/A   Clear
11:53 PM 46.9 °F - 30.0 °F 52% 30.17 in 10.0 mi ENE 8.1 mph - N/A   Clear